Back to catalog

STARLINK-36767

AliveCommunicationsSSO
NORAD 67814·PAYLOAD·🇺🇸 United States

Launched Feb 15, 2026 from Vandenberg Space Force Base

Loading…

Next Passes (next 24 hours)

TLE

FreshSource: CelesTrak SupGP

Epoch: Sep 15, 2026, 02:34 UTC

1 67814C 26032T   26258.10743056 -.00051672  00000+0 -16039-2 0  2589
2 67814  97.2854  84.5609 0001772  92.4394  23.7527 15.33466976    10

Track STARLINK-36767 in real time with AllMySat

Download on the App Store